Regional Weather Roundup
Issued by NWS Goodland, KS

Home | Current Version | Previous Version | Graphics & Text | Print | Product List | Glossary On
Versions: 1 2 3 4 5 6 7 8 9 10 11 12 13 14 15 16 17 18 19 20 21 22 23 24 25 26 27 28 29 30 31 32 33 34 35 36 37 38 39 40 41 42 43 44 45 46 47 48 49 50
000
ASUS43 KGLD 291459
RWRGLD

GOODLAND FORECAST AREA HOURLY WEATHER ROUNDUP
NATIONAL WEATHER SERVICE GOODLAND KS
800 AM MST THU JAN 29 2015

...OFFICIAL OBSERVATIONS...

CITY           SKY/WX    TMP DP  RH WIND       PRES   REMARKS
GOODLAND KS    MOCLDY    30  26  85 N13       30.48R WCI  20
HILL CITY KS   MOSUNNY   33  26  75 NW13      30.46R
IMPERIAL NEB     N/A     31  24  75 NW10      30.48R
MCCOOK NEB     SUNNY     30  25  81 W12       30.47R
AKRON CO       CLOUDY    35  23  61 NW8       30.47R
BURLINGTON CO  CLOUDY    33  27  78 NW7       30.47R
LIMON CO       CLOUDY    33  26  75 N9        30.48R
$$

...UNOFFICIAL OBSERVATIONS...

CITY           SKY/WX    TMP DP  RH WIND       PRES   REMARKS
COLBY KS       SUNNY     32  28  86 NW20G28   30.47R
GOVE KS          N/A     33  32  96 MISG        N/A
NORTON KS      SUNNY     34  25  69 NW14      30.44R
SHARON SPRINGS   N/A     32  27  80 N8          N/A
KIT CARSON CO    N/A     37  26  65 MISG        N/A
YUMA CO          N/A     33  22  65 NW12        N/A
$$



USA.gov is the U.S. government's official web portal to all federal, state and local government web resources and services.